| time (UTC) | temp F | wind direction | speed MPH | gust MPH | rain 1hr in | rain 24hr in | rain mn in | humidity % | barometer mb |
| 20260503013643 | 62 | 94 | 0.0 | 0.0 | 0.00 | 0.00 | 0.00 | 67 | 1061.8 |
| 20260503013141 | 63 | 94 | 0.0 | 0.0 | 0.00 | 0.00 | 0.00 | 65 | 1061.7 |
| 20260503012638 | 64 | 94 | 0.0 | 0.0 | 0.00 | 0.00 | 0.00 | 61 | 1061.8 |
| 20260503012135 | 65 | 94 | 0.0 | 0.0 | 0.00 | 0.00 | 0.00 | 58 | 1061.8 |
| 20260503011632 | 65 | 94 | 0.0 | 0.0 | 0.00 | 0.00 | 0.00 | 57 | 1061.6 |
| 20260503011129 | 66 | 94 | 0.0 | 0.0 | 0.00 | 0.00 | 0.00 | 55 | 1061.6 |
| 20260503010625 | 67 | 94 | 0.0 | 0.0 | 0.00 | 0.00 | 0.00 | 53 | 1061.6 |
| 20260503010123 | 67 | 94 | 1.0 | 1.0 | 0.00 | 0.00 | 0.00 | 52 | 1061.3 |
| 20260503005619 | 68 | 94 | 0.0 | 1.0 | 0.00 | 0.00 | 0.00 | 49 | 1061.5 |
| 20260503005117 | 68 | 93 | 1.0 | 1.0 | 0.00 | 0.00 | 0.00 | 48 | 1061.6 |
| 20260503004612 | 69 | 94 | 1.0 | 2.0 | 0.00 | 0.00 | 0.00 | 48 | 1061.5 |
| 20260503004112 | 69 | 94 | 0.0 | 1.0 | 0.00 | 0.00 | 0.00 | 46 | 1061.5 |
| 20260503003608 | 70 | 94 | 1.0 | 2.0 | 0.00 | 0.00 | 0.00 | 44 | 1061.3 |
| 20260503003105 | 70 | 75 | 0.0 | 2.0 | 0.00 | 0.00 | 0.00 | 45 | 1061.4 |
| 20260503002602 | 71 | 62 | 2.0 | 4.0 | 0.00 | 0.00 | 0.00 | 43 | 1061.4 |
| 20260503002058 | 71 | 37 | 0.0 | 1.0 | 0.00 | 0.00 | 0.00 | 43 | 1061.5 |
| 20260503001549 | 71 | 8 | 1.0 | 2.0 | 0.00 | 0.00 | 0.00 | 41 | 1061.3 |
| 20260503001047 | 71 | 17 | 0.0 | 3.0 | 0.00 | 0.00 | 0.00 | 42 | 1061.4 |
| 20260503000544 | 72 | 31 | 3.0 | 3.0 | 0.00 | 0.00 | 0.00 | 41 | 1061.3 |
| 20260503000041 | 72 | 57 | 1.0 | 2.0 | 0.00 | 0.00 | 0.00 | 42 | 1061.2 |
| 20260502235537 | 72 | 33 | 1.0 | 2.0 | 0.00 | 0.00 | 0.00 | 40 | 1061.3 |
| 20260502235036 | 73 | 31 | 1.0 | 2.0 | 0.00 | 0.00 | 0.00 | 39 | 1061.3 |
| 20260502234531 | 72 | 30 | 2.0 | 4.0 | 0.00 | 0.00 | 0.00 | 40 | 1061.1 |
| 20260502234029 | 72 | 19 | 2.0 | 7.0 | 0.00 | 0.00 | 0.00 | 41 | 1061.3 |
| 20260502233529 | 72 | 15 | 2.0 | 2.0 | 0.00 | 0.00 | 0.00 | 40 | 1061.2 |
| 20260502233027 | 72 | 57 | 1.0 | 3.0 | 0.00 | 0.00 | 0.00 | 42 | 1061.3 |
| 20260502232523 | 72 | 21 | 2.0 | 3.0 | 0.00 | 0.00 | 0.00 | 40 | 1061.3 |
| 20260502232020 | 72 | 27 | 2.0 | 3.0 | 0.00 | 0.00 | 0.00 | 38 | 1061.2 |
| 20260502231517 | 72 | 25 | 2.0 | 4.0 | 0.00 | 0.00 | 0.00 | 42 | 1061.3 |
| 20260502231015 | 72 | 115 | 2.0 | 3.0 | 0.00 | 0.00 | 0.00 | 39 | 1061.2 |
| 20260502230513 | 72 | 26 | 1.0 | 2.0 | 0.00 | 0.00 | 0.00 | 38 | 1061.2 |
| 20260502230011 | 71 | 47 | 1.0 | 7.0 | 0.00 | 0.00 | 0.00 | 38 | 1061.1 |
| 20260502225511 | 72 | 78 | 4.0 | 10.0 | 0.00 | 0.00 | 0.00 | 39 | 1061.1 |
| 20260502225009 | 72 | 64 | 6.0 | 9.0 | 0.00 | 0.00 | 0.00 | 39 | 1061.2 |
| 20260502224505 | 73 | 50 | 1.0 | 4.0 | 0.00 | 0.00 | 0.00 | 38 | 1061.0 |
| 20260502224002 | 73 | 26 | 3.0 | 3.0 | 0.00 | 0.00 | 0.00 | 36 | 1061.2 |
| 20260502223500 | 73 | 14 | 0.0 | 1.0 | 0.00 | 0.00 | 0.00 | 38 | 1061.2 |
| 20260502222958 | 72 | 38 | 1.0 | 4.0 | 0.00 | 0.00 | 0.00 | 38 | 1061.1 |
| 20260502222455 | 72 | 37 | 2.0 | 10.0 | 0.00 | 0.00 | 0.00 | 38 | 1061.2 |
| 20260502221950 | 73 | 51 | 3.0 | 7.0 | 0.00 | 0.00 | 0.00 | 38 | 1061.3 |
| 20260502221447 | 73 | 41 | 0.0 | 2.0 | 0.00 | 0.00 | 0.00 | 38 | 1061.4 |
| 20260502220944 | 73 | 57 | 2.0 | 9.0 | 0.00 | 0.00 | 0.00 | 39 | 1061.4 |
| 20260502220440 | 73 | 15 | 2.0 | 6.0 | 0.00 | 0.00 | 0.00 | 38 | 1061.4 |
| 20260502215937 | 72 | 46 | 1.0 | 2.0 | 0.00 | 0.00 | 0.00 | 39 | 1061.3 |
| 20260502215434 | 73 | 75 | 5.0 | 7.0 | 0.00 | 0.00 | 0.00 | 37 | 1061.3 |
| 20260502214931 | 73 | 20 | 2.0 | 4.0 | 0.00 | 0.00 | 0.00 | 38 | 1061.4 |
| 20260502214427 | 73 | 26 | 3.0 | 4.0 | 0.00 | 0.00 | 0.00 | 39 | 1061.1 |
| 20260502213925 | 73 | 6 | 3.0 | 4.0 | 0.00 | 0.00 | 0.00 | 36 | 1061.5 |
| 20260502213421 | 73 | 356 | 3.0 | 6.0 | 0.00 | 0.00 | 0.00 | 38 | 1061.5 |
| 20260502212920 | 73 | 110 | 4.0 | 8.0 | 0.00 | 0.00 | 0.00 | 36 | 1061.5 |
| 20260502212419 | 74 | 0 | 2.0 | 4.0 | 0.00 | 0.00 | 0.00 | 38 | 1061.6 |
| 20260502211916 | 72 | 16 | 1.0 | 4.0 | 0.00 | 0.00 | 0.00 | 41 | 1061.7 |
| 20260502211411 | 73 | 26 | 2.0 | 6.0 | 0.00 | 0.00 | 0.00 | 42 | 1061.8 |
| 20260502210909 | 72 | 72 | 2.0 | 7.0 | 0.00 | 0.00 | 0.00 | 41 | 1061.7 |
| 20260502210405 | 73 | 43 | 3.0 | 11.0 | 0.00 | 0.00 | 0.00 | 42 | 1061.8 |
| 20260502205903 | 72 | 13 | 2.0 | 6.0 | 0.00 | 0.00 | 0.00 | 40 | 1061.9 |
| 20260502205358 | 72 | 22 | 2.0 | 8.0 | 0.00 | 0.00 | 0.00 | 42 | 1061.9 |
| 20260502204856 | 72 | 32 | 4.0 | 9.0 | 0.00 | 0.00 | 0.00 | 41 | 1062.0 |
| 20260502204353 | 73 | 19 | 2.0 | 7.0 | 0.00 | 0.00 | 0.00 | 44 | 1062.1 |
| 20260502203850 | 73 | 35 | 0.0 | 4.0 | 0.00 | 0.00 | 0.00 | 43 | 1062.2 |
| 20260502203348 | 72 | 319 | 2.0 | 2.0 | 0.00 | 0.00 | 0.00 | 42 | 1062.3 |
| 20260502202843 | 71 | 39 | 2.0 | 7.0 | 0.00 | 0.00 | 0.00 | 44 | 1062.2 |
| 20260502202341 | 72 | 120 | 3.0 | 7.0 | 0.00 | 0.00 | 0.00 | 45 | 1062.2 |
| 20260502201839 | 72 | 36 | 1.0 | 4.0 | 0.00 | 0.00 | 0.00 | 42 | 1062.5 |
| 20260502201335 | 71 | 8 | 2.0 | 6.0 | 0.00 | 0.00 | 0.00 | 43 | 1062.3 |
| 20260502200831 | 71 | 63 | 0.0 | 3.0 | 0.00 | 0.00 | 0.00 | 48 | 1062.4 |
| 20260502200327 | 71 | 134 | 7.0 | 11.0 | 0.00 | 0.00 | 0.00 | 43 | 1062.7 |
| 20260502195825 | 71 | 28 | 5.0 | 8.0 | 0.00 | 0.00 | 0.00 | 43 | 1062.7 |
| 20260502195321 | 72 | 27 | 1.0 | 7.0 | 0.00 | 0.00 | 0.00 | 45 | 1062.6 |
| 20260502194818 | 72 | 31 | 2.0 | 4.0 | 0.00 | 0.00 | 0.00 | 44 | 1062.7 |
| 20260502194315 | 72 | 54 | 1.0 | 3.0 | 0.00 | 0.00 | 0.00 | 48 | 1062.6 |
| 20260502193811 | 71 | 86 | 1.0 | 8.0 | 0.00 | 0.00 | 0.00 | 45 | 1062.7 |
| 20260502193308 | 71 | 16 | 1.0 | 6.0 | 0.00 | 0.00 | 0.00 | 46 | 1062.6 |
| 20260502192804 | 70 | 8 | 1.0 | 3.0 | 0.00 | 0.00 | 0.00 | 46 | 1062.6 |
| 20260502192304 | 70 | 25 | 4.0 | 4.0 | 0.00 | 0.00 | 0.00 | 47 | 1062.8 |
| 20260502191758 | 70 | 13 | 3.0 | 4.0 | 0.00 | 0.00 | 0.00 | 49 | 1062.8 |
| 20260502191256 | 70 | 26 | 1.0 | 4.0 | 0.00 | 0.00 | 0.00 | 48 | 1062.7 |
| 20260502190753 | 69 | 10 | 0.0 | 3.0 | 0.00 | 0.00 | 0.00 | 52 | 1062.8 |
| 20260502190250 | 69 | 29 | 2.0 | 3.0 | 0.00 | 0.00 | 0.00 | 48 | 1062.8 |
| 20260502185745 | 69 | 65 | 0.0 | 4.0 | 0.00 | 0.00 | 0.00 | 51 | 1062.8 |
| 20260502185241 | 71 | 18 | 2.0 | 4.0 | 0.00 | 0.00 | 0.00 | 50 | 1062.7 |
| 20260502184738 | 69 | 10 | 2.0 | 6.0 | 0.00 | 0.00 | 0.00 | 52 | 1062.9 |
| 20260502184234 | 69 | 4 | 2.0 | 3.0 | 0.00 | 0.00 | 0.00 | 53 | 1063.0 |
| 20260502183731 | 69 | 35 | 3.0 | 4.0 | 0.00 | 0.00 | 0.00 | 52 | 1063.2 |
| 20260502183226 | 69 | 18 | 4.0 | 6.0 | 0.00 | 0.00 | 0.00 | 54 | 1063.1 |
| 20260502182722 | 68 | 31 | 4.0 | 7.0 | 0.00 | 0.00 | 0.00 | 53 | 1063.1 |
| 20260502182217 | 69 | 22 | 4.0 | 6.0 | 0.00 | 0.00 | 0.00 | 54 | 1063.2 |
| 20260502181714 | 69 | 31 | 1.0 | 4.0 | 0.00 | 0.00 | 0.00 | 52 | 1063.2 |
| 20260502181209 | 68 | 18 | 2.0 | 9.0 | 0.00 | 0.00 | 0.00 | 55 | 1063.6 |
| 20260502180705 | 68 | 42 | 1.0 | 6.0 | 0.00 | 0.00 | 0.00 | 56 | 1063.5 |
| 20260502180202 | 68 | 24 | 2.0 | 3.0 | 0.00 | 0.00 | 0.00 | 54 | 1063.6 |
| 20260502170126 | 66 | 0 | 3.0 | 3.0 | 0.00 | 0.00 | 0.00 | 61 | 1064.4 |
| 20260502164113 | 64 | 52 | 2.0 | 6.0 | 0.00 | 0.00 | 0.00 | 64 | 1064.4 |
| 20260502163609 | 64 | 17 | 2.0 | 4.0 | 0.00 | 0.00 | 0.00 | 65 | 1064.5 |
| 20260502163106 | 64 | 316 | 3.0 | 9.0 | 0.00 | 0.00 | 0.00 | 63 | 1064.5 |
| 20260502162602 | 64 | 23 | 3.0 | 4.0 | 0.00 | 0.00 | 0.00 | 64 | 1064.4 |
| 20260502162100 | 64 | 334 | 3.0 | 7.0 | 0.00 | 0.00 | 0.00 | 63 | 1064.5 |
| 20260502161556 | 64 | 47 | 1.0 | 2.0 | 0.00 | 0.00 | 0.00 | 65 | 1064.5 |
| 20260502161054 | 63 | 44 | 2.0 | 6.0 | 0.00 | 0.00 | 0.00 | 62 | 1064.5 |
| 20260502160552 | 63 | 13 | 2.0 | 4.0 | 0.00 | 0.00 | 0.00 | 63 | 1064.6 |
| 20260502152005 | 61 | 9 | 2.0 | 2.0 | 0.00 | 0.00 | 0.00 | 72 | 1064.6 |
| 20260502151501 | 60 | 41 | 2.0 | 4.0 | 0.00 | 0.00 | 0.00 | 74 | 1064.7 |
| 20260502150959 | 60 | 10 | 1.0 | 4.0 | 0.00 | 0.00 | 0.00 | 73 | 1064.6 |
| 20260502150456 | 59 | 20 | 1.0 | 3.0 | 0.00 | 0.00 | 0.00 | 74 | 1064.4 |
| 20260502130341 | 52 | 6 | 4.0 | 8.0 | 0.00 | 0.00 | 0.00 | 90 | 1063.1 |
| 20260502123324 | 50 | 7 | 1.0 | 3.0 | 0.00 | 0.00 | 0.00 | 95 | 1062.7 |
| 20260502122821 | 49 | 345 | 2.0 | 4.0 | 0.00 | 0.00 | 0.00 | 95 | 1062.8 |
| 20260502122316 | 49 | 346 | 1.0 | 2.0 | 0.00 | 0.00 | 0.00 | 97 | 1062.6 |
| 20260502121815 | 48 | 342 | 2.0 | 4.0 | 0.00 | 0.00 | 0.00 | 97 | 1062.4 |
| 20260502121312 | 48 | 13 | 2.0 | 3.0 | 0.00 | 0.00 | 0.00 | 98 | 1062.2 |
| 20260502120809 | 48 | 7 | 1.0 | 3.0 | 0.00 | 0.00 | 0.00 | 98 | 1062.1 |
| 20260502120305 | 47 | 8 | 0.0 | 1.0 | 0.00 | 0.00 | 0.00 | 99 | 1062.0 |
| 20260502115803 | 47 | 8 | 1.0 | 2.0 | 0.00 | 0.00 | 0.00 | 99 | 1061.9 |
| 20260502115300 | 47 | 354 | 0.0 | 0.0 | 0.00 | 0.00 | 0.00 | 98 | 1061.8 |
| 20260502114756 | 48 | 354 | 0.0 | 0.0 | 0.00 | 0.00 | 0.00 | 98 | 1061.6 |
| 20260502114253 | 47 | 357 | 1.0 | 2.0 | 0.00 | 0.00 | 0.00 | 98 | 1061.6 |
| 20260502113750 | 48 | 356 | 1.0 | 2.0 | 0.00 | 0.00 | 0.00 | 98 | 1061.6 |
| 20260502113248 | 48 | 352 | 2.0 | 3.0 | 0.00 | 0.00 | 0.00 | 98 | 1061.6 |
| 20260502112746 | 48 | 7 | 0.0 | 1.0 | 0.00 | 0.00 | 0.00 | 98 | 1061.6 |
| 20260502112243 | 48 | 12 | 1.0 | 3.0 | 0.00 | 0.00 | 0.00 | 98 | 1061.5 |
| 20260502111740 | 48 | 8 | 1.0 | 2.0 | 0.00 | 0.00 | 0.00 | 98 | 1061.6 |
| 20260502111238 | 48 | 7 | 2.0 | 2.0 | 0.00 | 0.00 | 0.00 | 98 | 1061.5 |
| 20260502110735 | 48 | 13 | 1.0 | 2.0 | 0.00 | 0.00 | 0.00 | 98 | 1061.4 |
| 20260502110233 | 48 | 356 | 2.0 | 3.0 | 0.00 | 0.00 | 0.00 | 98 | 1061.5 |
| 20260502105731 | 48 | 5 | 2.0 | 3.0 | 0.00 | 0.00 | 0.00 | 99 | 1061.6 |
| 20260502105226 | 48 | 13 | 0.0 | 2.0 | 0.00 | 0.00 | 0.00 | 99 | 1061.4 |
| 20260502104724 | 48 | 12 | 0.0 | 2.0 | 0.00 | 0.00 | 0.00 | 99 | 1061.3 |
| 20260502104222 | 48 | 6 | 1.0 | 1.0 | 0.00 | 0.00 | 0.00 | 99 | 1061.5 |
| 20260502103719 | 48 | 4 | 1.0 | 2.0 | 0.00 | 0.00 | 0.00 | 99 | 1061.3 |
| 20260502103217 | 48 | 8 | 0.0 | 3.0 | 0.00 | 0.00 | 0.00 | 98 | 1061.1 |
| 20260502102713 | 48 | 8 | 1.0 | 2.0 | 0.00 | 0.00 | 0.00 | 98 | 1061.0 |
| 20260502102210 | 48 | 8 | 2.0 | 3.0 | 0.00 | 0.00 | 0.00 | 98 | 1061.1 |
| 20260502101708 | 48 | 6 | 2.0 | 2.0 | 0.00 | 0.00 | 0.00 | 98 | 1060.9 |
| 20260502101206 | 48 | 10 | 1.0 | 3.0 | 0.00 | 0.00 | 0.00 | 98 | 1060.8 |
| 20260502100704 | 48 | 353 | 2.0 | 3.0 | 0.00 | 0.00 | 0.00 | 98 | 1060.7 |
| 20260502100202 | 48 | 19 | 1.0 | 2.0 | 0.00 | 0.00 | 0.00 | 98 | 1060.6 |
| 20260502091136 | 48 | 15 | 2.0 | 2.0 | 0.00 | 0.00 | 0.00 | 99 | 1059.9 |
| 20260502090633 | 48 | 17 | 0.0 | 0.0 | 0.00 | 0.00 | 0.00 | 99 | 1059.7 |
| 20260502090131 | 48 | 28 | 1.0 | 3.0 | 0.00 | 0.00 | 0.00 | 99 | 1059.8 |
| 20260502071528 | 50 | 17 | 4.0 | 7.0 | 0.00 | 0.00 | 0.00 | 99 | 1059.8 |
| 20260502071026 | 50 | 18 | 2.0 | 3.0 | 0.00 | 0.00 | 0.00 | 99 | 1059.9 |
| 20260502070524 | 50 | 14 | 2.0 | 4.0 | 0.00 | 0.00 | 0.00 | 99 | 1059.9 |
| 20260502070022 | 50 | 15 | 3.0 | 4.0 | 0.00 | 0.00 | 0.00 | 99 | 1059.9 |
| 20260502065520 | 50 | 12 | 2.0 | 2.0 | 0.00 | 0.00 | 0.00 | 99 | 1059.7 |
| 20260502065017 | 50 | 14 | 1.0 | 3.0 | 0.00 | 0.00 | 0.00 | 99 | 1059.8 |
| 20260502064516 | 50 | 17 | 1.0 | 3.0 | 0.00 | 0.00 | 0.00 | 99 | 1059.5 |
| 20260502064012 | 50 | 13 | 2.0 | 3.0 | 0.00 | 0.00 | 0.00 | 99 | 1059.5 |
| 20260502063510 | 50 | 11 | 1.0 | 7.0 | 0.00 | 0.00 | 0.00 | 99 | 1059.5 |
| 20260502063008 | 50 | 15 | 1.0 | 3.0 | 0.00 | 0.00 | 0.00 | 99 | 1059.7 |
| 20260502062504 | 50 | 13 | 3.0 | 3.0 | 0.00 | 0.00 | 0.00 | 99 | 1059.6 |
| 20260502062003 | 50 | 7 | 1.0 | 2.0 | 0.00 | 0.00 | 0.00 | 99 | 1059.8 |
| 20260502061500 | 50 | 10 | 2.0 | 3.0 | 0.00 | 0.00 | 0.00 | 99 | 1059.8 |
| 20260502060955 | 50 | 9 | 1.0 | 3.0 | 0.00 | 0.00 | 0.00 | 99 | 1059.9 |
| 20260502060451 | 50 | 8 | 2.0 | 3.0 | 0.00 | 0.00 | 0.00 | 99 | 1060.0 |
| 20260502055948 | 50 | 14 | 2.0 | 3.0 | 0.00 | 0.00 | 0.00 | 99 | 1059.9 |
| 20260502055446 | 50 | 5 | 1.0 | 3.0 | 0.00 | 0.00 | 0.00 | 99 | 1059.8 |
| 20260502054941 | 50 | 11 | 1.0 | 3.0 | 0.00 | 0.00 | 0.00 | 99 | 1060.0 |
| 20260502054438 | 50 | 356 | 1.0 | 2.0 | 0.00 | 0.00 | 0.00 | 99 | 1059.8 |
| 20260502053935 | 50 | 7 | 1.0 | 3.0 | 0.00 | 0.00 | 0.00 | 99 | 1060.0 |
| 20260502053432 | 50 | 16 | 2.0 | 3.0 | 0.00 | 0.00 | 0.00 | 99 | 1060.0 |
| 20260502052930 | 50 | 351 | 2.0 | 3.0 | 0.00 | 0.00 | 0.00 | 99 | 1059.9 |
| 20260502052428 | 50 | 11 | 0.0 | 2.0 | 0.00 | 0.00 | 0.00 | 99 | 1059.7 |
| 20260502051926 | 50 | 0 | 1.0 | 4.0 | 0.00 | 0.00 | 0.00 | 99 | 1059.8 |
| 20260502051424 | 50 | 355 | 2.0 | 3.0 | 0.00 | 0.00 | 0.00 | 99 | 1059.9 |
| 20260502050921 | 50 | 355 | 2.0 | 3.0 | 0.00 | 0.00 | 0.00 | 99 | 1059.8 |
| 20260502050417 | 50 | 12 | 3.0 | 3.0 | 0.00 | 0.00 | 0.00 | 99 | 1059.5 |
| 20260502045915 | 50 | 25 | 0.0 | 1.0 | 0.00 | 1.21 | 1.21 | 99 | 1059.4 |
| 20260502045411 | 50 | 7 | 1.0 | 2.0 | 0.00 | 1.21 | 1.21 | 99 | 1059.5 |
| 20260502044908 | 50 | 347 | 2.0 | 2.0 | 0.00 | 1.21 | 1.21 | 99 | 1059.4 |
| 20260502044403 | 50 | 3 | 0.0 | 2.0 | 0.00 | 1.21 | 1.21 | 99 | 1059.5 |
| 20260502043901 | 50 | 10 | 2.0 | 3.0 | 0.00 | 1.21 | 1.21 | 99 | 1059.6 |
| 20260502043359 | 50 | 13 | 0.0 | 1.0 | 0.00 | 1.21 | 1.21 | 99 | 1059.3 |
| 20260502042858 | 50 | 9 | 1.0 | 2.0 | 0.00 | 1.21 | 1.21 | 99 | 1059.5 |
| 20260502042355 | 50 | 9 | 0.0 | 1.0 | 0.00 | 1.21 | 1.21 | 99 | 1059.5 |
| 20260502041853 | 51 | 17 | 0.0 | 2.0 | 0.00 | 1.21 | 1.21 | 99 | 1059.6 |
| 20260502041350 | 51 | 15 | 1.0 | 4.0 | 0.00 | 1.21 | 1.21 | 99 | 1059.6 |
| 20260502040847 | 51 | 12 | 1.0 | 6.0 | 0.00 | 1.21 | 1.21 | 99 | 1059.8 |
| 20260502040344 | 51 | 23 | 2.0 | 6.0 | 0.00 | 1.21 | 1.21 | 99 | 1059.6 |
| 20260502035840 | 51 | 32 | 1.0 | 2.0 | 0.00 | 1.21 | 1.21 | 99 | 1059.6 |
| 20260502035337 | 51 | 17 | 0.0 | 3.0 | 0.00 | 1.21 | 1.21 | 99 | 1059.4 |
| 20260502034834 | 51 | 26 | 2.0 | 2.0 | 0.00 | 1.21 | 1.21 | 99 | 1059.3 |
| 20260502034333 | 51 | 29 | 3.0 | 3.0 | 0.00 | 1.21 | 1.21 | 99 | 1059.3 |
| 20260502033831 | 51 | 33 | 3.0 | 4.0 | 0.00 | 1.21 | 1.21 | 99 | 1059.5 |
| 20260502033328 | 51 | 43 | 1.0 | 3.0 | 0.00 | 1.21 | 1.21 | 99 | 1059.7 |
| 20260502032825 | 51 | 32 | 1.0 | 3.0 | 0.00 | 1.21 | 1.21 | 99 | 1059.4 |
| 20260502032320 | 51 | 35 | 2.0 | 4.0 | 0.00 | 1.21 | 1.21 | 99 | 1059.6 |
| 20260502031818 | 51 | 20 | 3.0 | 4.0 | 0.00 | 1.21 | 1.21 | 99 | 1059.7 |
| 20260502031316 | 51 | 26 | 2.0 | 7.0 | 0.00 | 1.21 | 1.21 | 99 | 1059.5 |
| 20260502030815 | 51 | 15 | 2.0 | 6.0 | 0.00 | 1.21 | 1.21 | 99 | 1059.3 |
| 20260502030312 | 51 | 22 | 1.0 | 3.0 | 0.00 | 1.21 | 1.21 | 99 | 1059.3 |
| 20260502025809 | 51 | 16 | 1.0 | 3.0 | 0.00 | 1.21 | 1.21 | 99 | 1059.4 |
| 20260502025307 | 51 | 22 | 2.0 | 7.0 | 0.00 | 1.21 | 1.21 | 99 | 1059.2 |
| 20260502024805 | 51 | 6 | 4.0 | 7.0 | 0.00 | 1.21 | 1.21 | 99 | 1058.9 |
| 20260502024302 | 51 | 49 | 1.0 | 2.0 | 0.00 | 1.21 | 1.21 | 99 | 1058.9 |
| 20260502023800 | 51 | 28 | 4.0 | 8.0 | 0.00 | 1.21 | 1.21 | 99 | 1058.7 |
| 20260502023258 | 51 | 26 | 2.0 | 3.0 | 0.00 | 1.21 | 1.21 | 99 | 1058.7 |
| 20260502022755 | 51 | 40 | 1.0 | 6.0 | 0.00 | 1.21 | 1.21 | 99 | 1058.4 |
| 20260502022251 | 50 | 34 | 1.0 | 6.0 | 0.00 | 1.21 | 1.21 | 99 | 1058.6 |
| 20260502021748 | 51 | 39 | 4.0 | 9.0 | 0.00 | 1.21 | 1.21 | 99 | 1058.5 |
| 20260502021246 | 51 | 28 | 1.0 | 6.0 | 0.00 | 1.21 | 1.21 | 99 | 1058.5 |
| 20260502020743 | 51 | 28 | 2.0 | 2.0 | 0.00 | 1.21 | 1.21 | 99 | 1058.3 |
| 20260502020240 | 51 | 26 | 3.0 | 10.0 | 0.00 | 1.21 | 1.21 | 99 | 1058.2 |
| 20260502015738 | 51 | 27 | 1.0 | 9.0 | 0.00 | 1.21 | 1.21 | 99 | 1058.2 |
| 20260502015234 | 51 | 25 | 1.0 | 6.0 | 0.00 | 1.21 | 1.21 | 99 | 1058.3 |
| 20260502014732 | 51 | 26 | 2.0 | 6.0 | 0.00 | 1.21 | 1.21 | 99 | 1058.0 |
| 20260502014228 | 51 | 21 | 3.0 | 3.0 | 0.00 | 1.21 | 1.21 | 99 | 1057.9 |